St. Francis, KS

6:26 AM CST on November 18, 2017 (GMT -0600)
Cheyenne County Municipal

Weather History for KSYF - December, 2013

Change the Weather History Date:

Thursday, December 12, 2013

  Actual Average Record
Temperature  
Mean Temperature 34 °F -  
Max Temperature 55 °F 44 °F 63 °F (2012)
Min Temperature 12 °F 19 °F 12 °F (2013)
Degree Days  
Heating Degree Days 32    
Moisture  
Dew Point 11 °F    
Average Humidity 56    
Maximum Humidity 83    
Minimum Humidity 17    
Precipitation  
Precipitation 0.00 in - - ()
Sea Level Pressure  
Sea Level Pressure 30.17 in    
Wind  
Wind Speed 8 mph (SW)    
Max Wind Speed 13 mph    
Max Gust Speed -    
Visibility 10 miles    
Events      
Averages and records for this station are not official NWS values.
T = Trace of Precipitation, MM = Missing Value Source: NWS Daily Summary

Daily Weather History Graph

Daily Weather History Graph

Search for Another Location

Airport or City:

Trip Planner

Search our weather history database for the weather conditions in past years. The results will help you decide how hot, cold, wet, or windy it might be!

Date:

Astronomy

Dec. 12, 2013 Rise Set
Actual Time 7:59 AM CST 5:22 PM CST
Civil Twilight 7:28 AM CST 5:53 PM CST
Nautical Twilight 6:55 AM CST 6:27 PM CST
Astronomical Twilight 6:22 AM CST 6:59 PM CST
Moon 2:30 PM CST (12/12) 3:24 AM CST (12/12)
Length of Visible Light 10h 24m
Length of Day
9h 23m
Waxing Gibbous, 80% of the Moon is Illuminated
Dec 12
Waxing Gibbous
Dec 17
Full
Dec 25
Last Quarter
Jan 1
New
Jan 7
First Quarter

Hourly Weather History & Observations

Time (CST) Temp. Windchill Dew Point Humidity Pressure Visibility Wind Dir Wind Speed Gust Speed Precip Events Conditions
12:15 AM 12.7 °F 2.4 °F 7.7 °F 80% 30.35 in 10.0 mi SW 6.9 mph - N/A   Clear
12:35 AM 12.7 °F -0.4 °F 8.2 °F 82% 30.34 in 10.0 mi SW 10.4 mph - N/A   Clear
12:55 AM 13.3 °F 1.1 °F 8.6 °F 82% 30.34 in 10.0 mi SSW 9.2 mph - N/A   Clear
1:15 AM 14.5 °F 2.7 °F 9.5 °F 80% 30.33 in 10.0 mi SW 9.2 mph - N/A   Clear
1:35 AM 14.9 °F 3.1 °F 10.0 °F 81% 30.32 in 10.0 mi WSW 9.2 mph - N/A   Clear
1:55 AM 14.5 °F 1.9 °F 9.5 °F 80% 30.31 in 10.0 mi WSW 10.4 mph - N/A   Clear
2:15 AM 13.8 °F 1.0 °F 9.1 °F 82% 30.31 in 10.0 mi WSW 10.4 mph - N/A   Clear
2:35 AM 14.0 °F 1.2 °F 9.3 °F 82% 30.31 in 10.0 mi WSW 10.4 mph - N/A   Clear
2:55 AM 14.0 °F 2.0 °F 9.5 °F 82% 30.31 in 10.0 mi SW 9.2 mph - N/A   Clear
3:15 AM 14.7 °F 2.9 °F 10.0 °F 82% 30.31 in 10.0 mi SW 9.2 mph - N/A   Clear
3:35 AM 14.5 °F 2.7 °F 9.9 °F 82% 30.31 in 10.0 mi WSW 9.2 mph - N/A   Clear
3:55 AM 13.1 °F 1.8 °F 8.4 °F 82% 30.31 in 10.0 mi WSW 8.1 mph - N/A   Clear
4:15 AM 12.7 °F 0.4 °F 8.4 °F 83% 30.30 in 10.0 mi WSW 9.2 mph - N/A   Clear
4:35 AM 13.3 °F 1.1 °F 8.6 °F 82% 30.30 in 10.0 mi SW 9.2 mph - N/A   Clear
4:55 AM 13.3 °F 0.3 °F 8.6 °F 82% 30.29 in 10.0 mi WSW 10.4 mph - N/A   Clear
5:15 AM 13.6 °F 1.6 °F 9.0 °F 82% 30.29 in 10.0 mi SW 9.2 mph - N/A   Clear
5:35 AM 13.3 °F 0.3 °F 8.6 °F 82% 30.29 in 10.0 mi WSW 10.4 mph - N/A   Clear
5:55 AM 13.1 °F -1.4 °F 8.6 °F 82% 30.28 in 10.0 mi SW 12.7 mph - N/A   Clear
6:15 AM 12.9 °F 0.7 °F 8.2 °F 82% 30.28 in 10.0 mi WSW 9.2 mph - N/A   Clear
6:35 AM 12.6 °F -0.6 °F 7.9 °F 82% 30.28 in 10.0 mi SW 10.4 mph - N/A   Clear
6:55 AM 12.7 °F -1.1 °F 7.9 °F 81% 30.26 in 10.0 mi SW 11.5 mph - N/A   Clear
7:15 AM 14.4 °F 2.4 °F 8.8 °F 79% 30.28 in 10.0 mi WSW 9.2 mph - N/A   Clear
7:35 AM 12.4 °F -0.8 °F 7.7 °F 82% 30.26 in 10.0 mi SW 10.4 mph - N/A   Clear
7:55 AM 13.8 °F 1.0 °F 8.6 °F 80% 30.25 in 10.0 mi SW 10.4 mph - N/A   Clear
8:15 AM 15.1 °F 1.8 °F 9.5 °F 79% 30.25 in 10.0 mi SW 11.5 mph - N/A   Clear
8:35 AM 15.8 °F 4.2 °F 9.9 °F 77% 30.25 in 10.0 mi WSW 9.2 mph - N/A   Clear
8:55 AM 16.5 °F 4.3 °F 10.2 °F 76% 30.24 in 10.0 mi WSW 10.4 mph - N/A   Clear
9:15 AM 17.1 °F 3.6 °F 10.6 °F 76% 30.25 in 10.0 mi WSW 12.7 mph - N/A   Clear
9:35 AM 18.5 °F 10.4 °F 11.5 °F 74% 30.26 in 10.0 mi WSW 5.8 mph - N/A   Clear
9:55 AM 21.2 °F 10.9 °F 13.5 °F 72% 30.26 in 10.0 mi SW 9.2 mph - N/A   Clear
10:15 AM 24.6 °F 15.8 °F 14.5 °F 66% 30.26 in 10.0 mi WSW 8.1 mph - N/A   Clear
10:35 AM 28.0 °F 20.8 °F 15.8 °F 60% 30.26 in 10.0 mi WSW 6.9 mph - N/A   Clear
10:55 AM 30.9 °F 26.2 °F 16.0 °F 54% 30.26 in 10.0 mi West 4.6 mph - N/A   Clear
11:15 AM 33.6 °F 29.4 °F 16.5 °F 50% 30.25 in 10.0 mi SW 4.6 mph - N/A   Clear
11:35 AM 36.7 °F 32.9 °F 17.1 °F 45% 30.24 in 10.0 mi WSW 4.6 mph - N/A   Clear
11:55 AM 40.8 °F 38.8 °F 17.6 °F 39% 30.22 in 10.0 mi West 3.5 mph - N/A   Clear
12:15 PM 43.9 °F - 16.7 °F 34% 30.20 in 10.0 mi Calm Calm - N/A   Clear
12:35 PM 48.7 °F - 14.7 °F 26% 30.18 in 10.0 mi South 6.9 mph - N/A   Clear
12:55 PM 50.7 °F - 13.1 °F 22% 30.17 in 10.0 mi SSW 6.9 mph - N/A   Clear
1:15 PM 52.7 °F - 10.9 °F 19% 30.15 in 10.0 mi SSW 6.9 mph - N/A   Clear
1:35 PM 52.5 °F - 11.8 °F 20% 30.14 in 10.0 mi South 4.6 mph - N/A   Clear
1:55 PM 53.6 °F - 10.4 °F 18% 30.13 in 10.0 mi South 4.6 mph - N/A   Clear
2:15 PM 54.9 °F - 9.9 °F 17% 30.12 in 10.0 mi SSW 4.6 mph - N/A   Clear
2:55 PM 54.7 °F - 10.8 °F 17% 30.10 in 10.0 mi SW 5.8 mph - N/A   Clear
3:15 PM 55.0 °F - 10.6 °F 17% 30.09 in 10.0 mi WNW 3.5 mph - N/A   Clear
3:35 PM 54.5 °F - 11.3 °F 18% 30.09 in 10.0 mi Calm Calm - N/A   Clear
3:55 PM 54.5 °F - 11.1 °F 18% 30.08 in 10.0 mi Calm Calm - N/A   Clear
4:15 PM 54.0 °F - 11.3 °F 18% 30.08 in 10.0 mi Calm Calm - N/A   Clear
4:35 PM 54.0 °F - 11.3 °F 18% 30.08 in 10.0 mi Calm Calm - N/A   Clear
4:55 PM 52.2 °F - 11.8 °F 20% 30.08 in 10.0 mi Calm Calm - N/A   Clear
5:15 PM 50.9 °F - 12.2 °F 21% 30.07 in 10.0 mi Calm Calm - N/A   Clear
5:35 PM 47.1 °F - 12.9 °F 25% 30.06 in 10.0 mi SE 4.6 mph - N/A   Clear
5:55 PM 41.4 °F 37.6 °F 12.2 °F 30% 30.05 in 10.0 mi SSE 5.8 mph - N/A   Clear
6:15 PM 34.0 °F 29.8 °F 12.9 °F 42% 30.05 in 10.0 mi SSW 4.6 mph - N/A   Clear
6:35 PM 36.0 °F 32.1 °F 11.7 °F 37% 30.04 in 10.0 mi SW 4.6 mph - N/A   Clear
6:55 PM 35.8 °F 33.0 °F 11.1 °F 36% 30.04 in 10.0 mi WNW 3.5 mph - N/A   Clear
7:15 PM 32.9 °F - 14.0 °F 46% 30.03 in 10.0 mi Calm Calm - N/A   Clear
7:35 PM 32.0 °F 27.5 °F 12.7 °F 45% 30.03 in 10.0 mi South 4.6 mph - N/A   Clear
7:55 PM 35.6 °F 29.9 °F 10.9 °F 36% 30.02 in 10.0 mi South 6.9 mph - N/A   Clear
8:15 PM 28.4 °F 23.3 °F 11.7 °F 50% 30.02 in 10.0 mi NNW 4.6 mph - N/A   Clear
8:35 PM 25.2 °F - 14.0 °F 63% 30.02 in 10.0 mi Calm Calm - N/A   Clear
8:55 PM 27.3 °F 23.4 °F 12.7 °F 54% 30.01 in 10.0 mi South 3.5 mph - N/A   Clear
9:15 PM 30.2 °F 22.6 °F 12.2 °F 47% 30.00 in 10.0 mi SSW 8.1 mph - N/A   Clear
9:35 PM 28.2 °F 22.0 °F 12.6 °F 52% 29.99 in 10.0 mi SW 5.8 mph - N/A   Clear
9:55 PM 28.6 °F 24.8 °F 12.0 °F 50% 29.99 in 10.0 mi West 3.5 mph - N/A   Clear
10:15 PM 25.9 °F - 12.2 °F 56% 29.99 in 10.0 mi Calm Calm - N/A   Clear
10:35 PM 25.5 °F 17.8 °F 12.0 °F 57% 29.98 in 10.0 mi SW 6.9 mph - N/A   Clear
10:55 PM 25.5 °F 17.8 °F 11.8 °F 56% 29.97 in 10.0 mi SW 6.9 mph - N/A   Clear
11:15 PM 24.6 °F - 11.7 °F 58% 29.96 in 10.0 mi Calm Calm - N/A   Clear
11:35 PM 20.8 °F 13.2 °F 11.1 °F 66% 29.96 in 10.0 mi SW 5.8 mph - N/A   Clear
11:55 PM 23.0 °F 11.7 °F 11.7 °F 62% 29.94 in 10.0 mi SW 11.5 mph - N/A   Clear